Погода в Горниках

Украина / Волынская область     51°43′50″N   24°28′50″E
темп.,
°C
ветер,
м/с
пор.,
м/с
влажн.,
%
обл.,
%
осадки,
мм/ч
давл.,
гПа
погр.,
м
16 июня, ср
ср1600:00+16с3587100 0.0 101773
03:00+14с359465 0.0 101787
06:00+14с24955 0.0 101787
09:00+18ссв458238 0.0 1018570
12:00+21ссв33645 0.0 1019833
15:00+22ссв55596 0.0 10181204
18:00+22ссв45595 0.0 10181252
21:00+17св34785 0.0 101952
17 июня, чт
чт1700:00+13св33871 0.0 102026
03:00+11св22893 0.0 102125
06:00+11св33900 0.0 102257
09:00+17всв35730 0.0 1022383
12:00+22в45610 0.0 10221142
15:00+24в34520 0.0 10221648
18:00+24всв34560 0.0 10221331
21:00+20всв358018 0.0 102299
18 июня, пт
пт1800:00+17в36910 0.0 102394
03:00+15вюв38890 0.0 1023129
06:00+15вюв36877 0.0 102399
09:00+21вюв45725 0.0 1023394
12:00+24вюв45590 0.0 10231316
15:00+26в45530 0.0 10221570
18:00+26в45570 0.0 10211383
21:00+21в35805 0.0 102170
19 июня, сб
сб1900:00+18юв34915 0.0 102249
03:00+16юв36945 0.0 1022108
06:00+16юв35951 0.0 102297
09:00+22юв46772 0.0 1022534
12:00+25вюв456123 0.0 10211343
15:00+28вюв445236 0.0 10191994
18:00+27ююв235987 0.0 10191212
21:00+22ююв247511 0.1 101962
20 июня, вс
вс2000:00+18ююв37895 0.0 1020134
03:00+16ююв35940 0.0 102087
06:00+16юв35950 0.0 102094
09:00+21юв46751 0.0 1020545
12:00+25юв455974 0.1 10191623
15:00+24юв446171 0.1 10181231
18:00+26вюв245343 0.0 10171642
21:00+21в37820 0.1 1017148